Погода в Баркалдине

Австралия     23°33′07″S   145°17′03″E
темп.,
°C
ветер,
м/с
пор.,
м/с
влажн.,
%
обл.,
%
осадки,
мм/ч
давл.,
гПа
погр.,
м
14 июня, пн
пн1401:00+16ююв44437 0.0 101432
04:00+14вюв22755 0.0 101311
07:00+13юв228867 0.0 101511
10:00+21юз11527 0.0 1015428
13:00+26з222281 0.0 10131250
16:00+26з441899 0.0 1012992
19:00+21зюз4423100 0.0 101439
22:00+17зюз332991 0.0 101511
15 июня, вт
вт1501:00+16ююв223195 0.0 101411
04:00+15вюв233493 0.0 101411
07:00+17в333427 0.0 101518
10:00+24всв332499 0.0 1016477
13:00+27с33188 0.0 10141279
16:00+27с322078 0.0 10121226
19:00+23зюз1227100 0.0 101411
22:00+22св34286 0.0 101626
16 июня, ср
ср1601:00+20вюв223718 0.0 101411
04:00+19с5548100 0.0 101548
07:00+17ссв5871100 0.3 1017102
10:00+24ссв9115779 0.5 1017720
13:00+28с994692 0.0 10141477
16:00+29ссз663891 0.0 10132116
19:00+21с5877100 0.1 1014104
22:00+20ссв2279100 0.4 101617
17 июня, чт
чт1701:00+21сз467297 0.0 101588
04:00+18ююз7124988 0.1 1016224
07:00+17ю712495 0.0 1017304
10:00+21ю78374 0.0 1018627
13:00+24ююз442864 0.0 10161073
16:00+25юз66255 0.0 10141312
19:00+18юз59271 0.0 1017111
22:00+15ююз510215 0.0 1018119
18 июня, пт
пт1801:00+12ю572911 0.0 101886
04:00+11ю573651 0.0 101981
07:00+10ю46475 0.0 102065
10:00+17ююз673759 0.0 1020773
13:00+21юз67275 0.0 10181390
16:00+21юз8826100 0.0 10171634
19:00+16ююз593998 0.0 1018152
22:00+14ююз454699 0.0 102074